Regional Weather Roundup
Issued by NWS

Home | Current Version | Previous Version | Text Only | Print | Product List | Glossary On
Versions: 1 2 3 4 5 6 7 8 9 10 11 12 13 14 15 16 17 18 19 20 21 22 23 24 25 26 27 28 29 30 31 32 33 34 35 36 37 38 39 40 41 42 43 44 45 46 47 48 49 50
000
ASUS43 KIND 220609
RWRIN

WEATHER ROUNDUP FOR INDIANA
NATIONAL WEATHER SERVICE INDIANAPOLIS IN
100 AM EST WED NOV 22 2017

NOTE: "FAIR" INDICATES FEW OR NO CLOUDS BELOW 12,000 FEET WITH NO
SIGNIFICANT WEATHER AND/OR OBSTRUCTIONS TO VISIBILITY.

* - STATION DOES NOT REPORT WEATHER SUCH AS PRECIPITATION OR FOG.

+ - STATION NOT QUALITY CONTROLLED BY THE NATIONAL WEATHER SERVICE.
    USE DATA WITH CAUTION...ESPECIALLY DEWPOINT AND RELATIVE
    HUMIDITY OBSERVATIONS.

INZ001>003-010>013-019-020-220700-
NORTHWEST INDIANA

CITY           SKY/WX    TMP DP  RH WIND       PRES   REMARKS
GARY /AIRPORT/ PTCLDY    30  15  54 NW12      30.22R WCI  21
KNOX *+        CLOUDY    32  23  69 NW10G16   30.17R WCI  24
LA PORTE +     CLOUDY    32  23  69 NW10      30.17R WCI  24
6HR MIN TEMP:  32; 6HR MAX TEMP:  33;

MICHIGAN CITY+ CLOUDY    32  23  69 NW6       30.18R WCI  26
MONTICELLO +   CLEAR     27  20  74 NW12      30.18S WCI  17
6HR MIN TEMP:  27; 6HR MAX TEMP:  34;

RENSSELAER +   CLEAR     28  18  64 NW7       30.20S WCI  21
VALPARAISO     CLOUDY    33  21  61 NW9       30.18R WCI  25
6HR MIN TEMP:  33; 6HR MAX TEMP:  36;


$$

LMZ046-743>745-220700-
SOUTHERN LAKE MICHIGAN

STATION/POSITION TIME  TEMP    WIND        PRES    WAVE
                       AIR SEA DIR/SP/G            HT
                 (UTC) (F)     (DEG/KT/KT) (MB)    (FT)
BURNS HARBOR     0543   33     340/ 17/ 23 1022.7R
MICHIGAN CITY    0540   33     320/ 22/ 25   N/A

$$

INZ004-005-014>016-021>024-220700-
NORTH CENTRAL INDIANA

CITY           SKY/WX    TMP DP  RH WIND       PRES   REMARKS
GOSHEN         CLOUDY    33  22  63 NW10      30.13R WCI  25
6HR MIN TEMP:  33; 6HR MAX TEMP:  36;

LOGANSPORT +   CLOUDY    32  23  69 NW6       30.18R WCI  26
PERU/GRISSOM   CLOUDY    31  24  76 NW10      30.15R WCI  22
6HR MIN TEMP:  30; 6HR MAX TEMP:  36;

ROCHESTER +    CLOUDY    34  27  75 NW8       30.15R WCI  27
SOUTH BEND     CLOUDY    32  24  72 NW12      30.15R WCI  23
6HR MIN TEMP:  32; 6HR MAX TEMP:  34;

WARSAW +       CLOUDY    32  25  74 NW9G17    30.14R WCI  24

$$

INZ006>009-017-018-025>027-220700-
NORTHEAST INDIANA

CITY           SKY/WX    TMP DP  RH WIND       PRES   REMARKS
AUBURN +       CLOUDY    34  27  75 W9        30.10R WCI  26
FORT WAYNE     CLOUDY    35  26  69 NW8       30.12R WCI  29
6HR MIN TEMP:  35; 6HR MAX TEMP:  39; 6HR PCP: TRACE;

HUNTINGTON +   CLOUDY    32  23  70 NW7       30.13R WCI  26
6HR MIN TEMP:  31; 6HR MAX TEMP:  36;

KENDALLVILLE + CLOUDY    33  24  71 N13G22    30.11R WCI  23

$$

INZ028-029-035-036-043>045-051>053-220700-
WEST CENTRAL INDIANA

CITY           SKY/WX    TMP DP  RH WIND       PRES   REMARKS
CRAWFORDSVL +  CLEAR     26  23  86 NW7         N/A  WCI  19
6HR MIN TEMP:  26; 6HR MAX TEMP:  32;

GREENCASTLE +  CLEAR     30  23  74 NW3       30.19R
LAFAYETTE      CLEAR     28  22  78 N10       30.20R WCI  19
6HR MIN TEMP:  28; 6HR MAX TEMP:  34;

TERRE HAUTE    CLEAR     29  23  78 NW8       30.22R WCI  21
6HR MIN TEMP:  29; 6HR MAX TEMP:  38; 6HR PCP:  0.03;


$$

INZ030>032-037>040-046>048-054>057-064-065-220700-
CENTRAL INDIANA

CITY           SKY/WX    TMP DP  RH WIND       PRES   REMARKS
CP ATTERBURY + CLEAR     30  25  80 NW6       30.18R WCI  24
FRANKFORT +    PTCLDY    31  26  80 NW10      30.19R WCI  22
6HR MIN TEMP:  31; 6HR MAX TEMP:  37;

INDIANAPOLIS   CLEAR     29  23  78 NW8       30.18R WCI  21
6HR MIN TEMP:  28; 6HR MAX TEMP:  39; 6HR PCP: TRACE;

-EAGLE CREEK   CLEAR     30  23  75 NW10      30.17R WCI  21
6HR MIN TEMP:  30; 6HR MAX TEMP:  38; 6HR PCP:  0.01;

KOKOMO +       CLOUDY    31  24  75 NW13      30.16R WCI  21
6HR MIN TEMP:  30; 6HR MAX TEMP:  35;

MARION +       CLEAR     30  26  83 NW12      30.16R WCI  21
MT COMFORT *+  CLEAR     28  25  86 NW7       30.16R WCI  21
SHELBYVILLE    CLEAR     30  23  75 NW8       30.16R WCI  22
6HR MIN TEMP:  30; 6HR MAX TEMP:  50; 6HR PCP:  0.01;

ZIONSVILLE +   CLEAR     28  24  86 NW8       30.18R WCI  19
6HR MIN TEMP:  27; 6HR MAX TEMP:  34; 6HR PCP:  0.01;


$$

INZ033-034-041-042-049-050-058-059-220700-
EAST CENTRAL INDIANA

CITY           SKY/WX    TMP DP  RH WIND       PRES   REMARKS
MUNCIE         CLEAR     31  26  82 W8        30.14R WCI  23
6HR MIN TEMP:  31; 6HR MAX TEMP:  43; 6HR PCP:  0.01;

RICHMOND +     CLEAR     30  28  93 W6        30.12R WCI  24

$$

INZ060-061-067>069-081>083-085>088-220700-
SOUTHWEST INDIANA

CITY           SKY/WX    TMP DP  RH WIND       PRES   REMARKS
EVANSVILLE     CLEAR     32  24  72 N7        30.24R WCI  26
6HR MIN TEMP:  32; 6HR MAX TEMP:  52;

HUNTINGBURG +  CLEAR     32  25  75 NW10      30.21R WCI  24
6HR MIN TEMP:  32; 6HR MAX TEMP:  50;

WASHINGTON +   CLEAR     30  23  75 NW7       30.22R WCI  23
6HR MIN TEMP:  29; 6HR MAX TEMP:  49;


$$

INZ062-063-066-070>080-084-089>092-220700-
SOUTH CENTRAL AND SOUTHEAST INDIANA

CITY           SKY/WX    TMP DP  RH WIND       PRES   REMARKS
BEDFORD +      CLEAR     32  23  69 NW7       30.18R WCI  26
BLOOMINGTON    CLEAR     31  22  69 VRB6      30.19R WCI  25
6HR MIN TEMP:  31; 6HR MAX TEMP:  50; 6HR PCP: TRACE;

MADISON *+     CLEAR     34  28  80 NW3       30.17R
NORTH VERNON + CLEAR     28  25  86 NW5       30.16S WCI  23
SEYMOUR +      CLEAR     34  25  69 NW8       30.18R WCI  27

$$





USA.gov is the U.S. government's official web portal to all federal, state and local government web resources and services.